Time,TemperatureF,DewpointF,PressureIn,WindDirection,WindDirectionDegrees,WindSpeedMPH,WindSpeedGustMPH,Humidity,HourlyPrecipIn,Conditions,Clouds,dailyrainin,SoftwareType,DateUTC
2013-03-07 00:00:00,32.5,28.8,30.24,WNW,285,1.0,2.0,86,0.00,,---,0.00,VWS V14.01,2013-03-07 06:00:00,
2013-03-07 00:05:00,32.5,28.8,30.25,West,273,1.0,3.0,86,0.00,,---,0.00,VWS V14.01,2013-03-07 06:05:00,
2013-03-07 00:10:00,32.5,28.8,30.25,West,273,0.0,3.0,86,0.00,,---,0.00,VWS V14.01,2013-03-07 06:10:00,
2013-03-07 00:15:00,32.5,28.8,30.25,West,270,0.0,3.0,86,0.00,,---,0.00,VWS V14.01,2013-03-07 06:15:00,
2013-03-07 00:20:00,32.5,28.8,30.24,West,271,0.0,3.0,86,0.00,,---,0.00,VWS V14.01,2013-03-07 06:20:00,
2013-03-07 00:25:00,32.5,28.8,30.24,WNW,287,1.0,3.0,86,0.00,,---,0.00,VWS V14.01,2013-03-07 06:25:00,
2013-03-07 00:30:00,32.4,28.7,30.25,West,266,0.0,1.0,86,0.00,,---,0.00,VWS V14.01,2013-03-07 06:30:00,
2013-03-07 00:35:00,32.4,28.7,30.25,West,273,0.0,1.0,86,0.00,,---,0.00,VWS V14.01,2013-03-07 06:35:00,
2013-03-07 00:40:00,32.4,28.7,30.25,West,274,0.0,1.0,86,0.00,,---,0.00,VWS V14.01,2013-03-07 06:40:00,
2013-03-07 00:45:00,32.4,28.7,30.25,West,281,0.0,2.0,86,0.00,,---,0.00,VWS V14.01,2013-03-07 06:45:00,
2013-03-07 00:50:00,32.5,28.8,30.25,WNW,297,0.0,3.0,86,0.00,,---,0.00,VWS V14.01,2013-03-07 06:50:00,
2013-03-07 00:55:00,32.5,28.8,30.25,West,280,0.0,3.0,86,0.00,,---,0.00,VWS V14.01,2013-03-07 06:55:00,
2013-03-07 01:00:00,32.4,28.7,30.25,West,280,0.0,0.0,86,0.00,,---,0.00,VWS V14.01,2013-03-07 07:00:00,
2013-03-07 01:05:00,32.4,28.7,30.25,West,276,1.0,1.0,86,0.00,,---,0.00,VWS V14.01,2013-03-07 07:05:00,
2013-03-07 01:10:00,32.4,29.0,30.25,West,276,0.0,1.0,87,0.00,,---,0.00,VWS V14.01,2013-03-07 07:10:00,
2013-03-07 01:15:00,32.4,29.0,30.25,West,281,0.0,1.0,87,0.00,,---,0.00,VWS V14.01,2013-03-07 07:15:00,
2013-03-07 01:20:00,32.3,28.9,30.25,West,281,0.0,1.0,87,0.00,,---,0.00,VWS V14.01,2013-03-07 07:20:00,
2013-03-07 01:25:00,32.3,28.9,30.25,West,274,0.0,2.0,87,0.00,,---,0.00,VWS V14.01,2013-03-07 07:25:00,
2013-03-07 01:30:00,32.3,28.9,30.25,West,271,0.0,0.0,87,0.00,,---,0.00,VWS V14.01,2013-03-07 07:30:00,
2013-03-07 01:35:00,32.2,28.8,30.25,West,274,0.0,1.0,87,0.00,,---,0.00,VWS V14.01,2013-03-07 07:35:00,
2013-03-07 01:40:00,32.2,28.8,30.25,West,274,0.0,1.0,87,0.00,,---,0.00,VWS V14.01,2013-03-07 07:40:00,
2013-03-07 01:45:00,32.2,28.8,30.25,West,274,0.0,1.0,87,0.00,,---,0.00,VWS V14.01,2013-03-07 07:45:00,
2013-03-07 01:50:00,32.2,28.8,30.25,WSW,250,0.0,2.0,87,0.00,,---,0.00,VWS V14.01,2013-03-07 07:50:00,
2013-03-07 01:55:00,32.2,28.8,30.25,West,274,0.0,2.0,87,0.00,,---,0.00,VWS V14.01,2013-03-07 07:55:00,
2013-03-07 02:00:00,32.2,28.8,30.25,WNW,285,1.0,2.0,87,0.00,,---,0.00,VWS V14.01,2013-03-07 08:00:00,
2013-03-07 02:05:00,32.2,28.8,30.25,West,281,0.0,2.0,87,0.00,,---,0.00,VWS V14.01,2013-03-07 08:05:00,
2013-03-07 02:10:00,32.2,28.8,30.25,West,281,0.0,2.0,87,0.00,,---,0.00,VWS V14.01,2013-03-07 08:10:00,
2013-03-07 02:15:00,32.1,28.7,30.25,West,281,0.0,2.0,87,0.00,,---,0.00,VWS V14.01,2013-03-07 08:15:00,
2013-03-07 02:20:00,32.1,28.7,30.25,West,281,0.0,2.0,87,0.00,,---,0.00,VWS V14.01,2013-03-07 08:20:00,
2013-03-07 02:25:00,32.1,28.7,30.25,West,281,0.0,2.0,87,0.00,,---,0.00,VWS V14.01,2013-03-07 08:25:00,
2013-03-07 02:30:00,32.0,28.6,30.25,West,281,0.0,0.0,87,0.00,,---,0.00,VWS V14.01,2013-03-07 08:30:00,
2013-03-07 02:35:00,32.0,28.6,30.25,West,281,0.0,0.0,87,0.00,,---,0.00,VWS V14.01,2013-03-07 08:35:00,
2013-03-07 02:40:00,31.9,28.8,30.25,West,281,0.0,0.0,88,0.00,,---,0.00,VWS V14.01,2013-03-07 08:40:00,
2013-03-07 02:45:00,31.8,28.7,30.25,West,281,0.0,0.0,88,0.00,,---,0.00,VWS V14.01,2013-03-07 08:45:00,
2013-03-07 02:50:00,31.8,28.7,30.25,West,281,0.0,0.0,88,0.00,,---,0.00,VWS V14.01,2013-03-07 08:50:00,
2013-03-07 02:55:00,31.8,28.7,30.25,West,281,0.0,0.0,88,0.00,,---,0.00,VWS V14.01,2013-03-07 08:55:00,
2013-03-07 03:00:00,31.9,28.8,30.26,West,281,1.0,1.0,88,0.00,,---,0.00,VWS V14.01,2013-03-07 09:00:00,
2013-03-07 03:05:00,31.9,28.8,30.26,West,259,0.0,1.0,88,0.00,,---,0.00,VWS V14.01,2013-03-07 09:05:00,
2013-03-07 03:10:00,31.9,28.8,30.26,West,259,0.0,1.0,88,0.00,,---,0.00,VWS V14.01,2013-03-07 09:10:00,
2013-03-07 03:15:00,31.9,28.8,30.26,West,260,0.0,1.0,88,0.00,,---,0.00,VWS V14.01,2013-03-07 09:15:00,
2013-03-07 03:20:00,31.9,28.8,30.26,West,260,0.0,1.0,88,0.00,,---,0.00,VWS V14.01,2013-03-07 09:20:00,
2013-03-07 03:25:00,31.9,28.8,30.26,West,260,0.0,1.0,88,0.00,,---,0.00,VWS V14.01,2013-03-07 09:25:00,
2013-03-07 03:30:00,31.9,28.8,30.26,WSW,252,0.0,0.0,88,0.00,,---,0.00,VWS V14.01,2013-03-07 09:30:00,
2013-03-07 03:35:00,31.9,28.8,30.27,West,263,0.0,1.0,88,0.00,,---,0.00,VWS V14.01,2013-03-07 09:35:00,
2013-03-07 03:40:00,31.9,28.8,30.27,West,269,0.0,1.0,88,0.00,,---,0.00,VWS V14.01,2013-03-07 09:40:00,
2013-03-07 03:45:00,31.9,28.8,30.27,West,281,0.0,1.0,88,0.00,,---,0.00,VWS V14.01,2013-03-07 09:45:00,
2013-03-07 03:50:00,31.9,28.8,30.27,West,276,0.0,1.0,88,0.00,,---,0.00,VWS V14.01,2013-03-07 09:50:00,
2013-03-07 03:55:00,31.9,28.8,30.27,WNW,288,0.0,2.0,88,0.00,,---,0.00,VWS V14.01,2013-03-07 09:55:00,
2013-03-07 04:00:00,31.9,28.8,30.27,WNW,294,0.0,2.0,88,0.00,,---,0.00,VWS V14.01,2013-03-07 10:00:00,
2013-03-07 04:05:00,31.9,28.8,30.27,West,264,0.0,2.0,88,0.00,,---,0.00,VWS V14.01,2013-03-07 10:05:00,
2013-03-07 04:10:00,31.9,28.8,30.27,West,264,0.0,2.0,88,0.00,,---,0.00,VWS V14.01,2013-03-07 10:10:00,
2013-03-07 04:15:00,31.9,28.8,30.27,West,260,0.0,2.0,88,0.00,,---,0.00,VWS V14.01,2013-03-07 10:15:00,
2013-03-07 04:20:00,31.9,28.8,30.28,West,266,0.0,2.0,88,0.00,,---,0.00,VWS V14.01,2013-03-07 10:20:00,
2013-03-07 04:25:00,31.9,28.8,30.28,West,281,0.0,2.0,88,0.00,,---,0.00,VWS V14.01,2013-03-07 10:25:00,
2013-03-07 04:30:00,31.9,28.8,30.28,West,281,0.0,2.0,88,0.00,,---,0.00,VWS V14.01,2013-03-07 10:30:00,
2013-03-07 04:35:00,32.0,28.9,30.28,WNW,283,1.0,2.0,88,0.00,,---,0.00,VWS V14.01,2013-03-07 10:35:00,
2013-03-07 04:40:00,32.0,28.9,30.28,WNW,284,0.0,2.0,88,0.00,,---,0.00,VWS V14.01,2013-03-07 10:40:00,
2013-03-07 04:45:00,31.9,28.8,30.28,West,266,0.0,2.0,88,0.00,,---,0.00,VWS V14.01,2013-03-07 10:45:00,
2013-03-07 04:50:00,31.8,28.7,30.28,WNW,290,1.0,2.0,88,0.00,,---,0.00,VWS V14.01,2013-03-07 10:50:00,
2013-03-07 04:55:00,31.9,28.8,30.28,SW,231,3.0,3.0,88,0.00,,---,0.00,VWS V14.01,2013-03-07 10:55:00,
2013-03-07 05:00:00,32.0,28.9,30.29,WSW,246,1.0,3.0,88,0.00,,---,0.00,VWS V14.01,2013-03-07 11:00:00,
2013-03-07 05:05:00,32.0,28.9,30.29,West,278,0.0,3.0,88,0.00,,---,0.00,VWS V14.01,2013-03-07 11:05:00,
2013-03-07 05:10:00,32.0,28.9,30.29,West,269,0.0,3.0,88,0.00,,---,0.00,VWS V14.01,2013-03-07 11:10:00,
2013-03-07 05:15:00,32.0,28.9,30.29,West,277,0.0,4.0,88,0.00,,---,0.00,VWS V14.01,2013-03-07 11:15:00,
2013-03-07 05:20:00,32.0,28.9,30.29,WNW,293,0.0,4.0,88,0.00,,---,0.00,VWS V14.01,2013-03-07 11:20:00,
2013-03-07 05:25:00,32.0,29.1,30.29,West,281,2.0,4.0,89,0.00,,---,0.00,VWS V14.01,2013-03-07 11:25:00,
2013-03-07 05:30:00,31.9,29.0,30.29,WNW,294,2.0,2.0,89,0.00,,---,0.00,VWS V14.01,2013-03-07 11:30:00,
2013-03-07 05:35:00,31.8,28.9,30.29,WNW,285,0.0,2.0,89,0.00,,---,0.00,VWS V14.01,2013-03-07 11:35:00,
2013-03-07 05:40:00,31.7,28.8,30.29,WNW,288,0.0,3.0,89,0.00,,---,0.00,VWS V14.01,2013-03-07 11:40:00,
2013-03-07 05:46:00,31.5,28.6,30.29,WNW,283,1.0,3.0,89,0.00,,---,0.00,VWS V14.01,2013-03-07 11:46:00,
2013-03-07 05:51:00,31.4,28.5,30.30,West,271,0.0,3.0,89,0.00,,---,0.00,VWS V14.01,2013-03-07 11:51:00,
2013-03-07 05:56:00,31.2,28.6,30.29,West,271,0.0,3.0,90,0.00,,---,0.00,VWS V14.01,2013-03-07 11:56:00,
2013-03-07 06:00:00,31.3,29.0,30.31,WNW,283,0.0,2.0,91,0.00,,---,0.00,VWS V14.01,2013-03-07 12:00:00,
2013-03-07 06:01:00,31.0,28.4,30.30,West,273,0.0,1.0,90,0.00,,---,0.00,VWS V14.01,2013-03-07 12:01:00,
2013-03-07 06:06:00,30.8,28.2,30.29,West,262,0.0,1.0,90,0.00,,---,0.00,VWS V14.01,2013-03-07 12:06:00,
2013-03-07 06:11:00,30.7,28.4,30.30,West,263,0.0,1.0,91,0.00,,---,0.00,VWS V14.01,2013-03-07 12:11:00,
2013-03-07 06:16:00,30.7,28.4,30.30,West,266,0.0,1.0,91,0.00,,---,0.00,VWS V14.01,2013-03-07 12:16:00,
2013-03-07 06:21:00,30.6,28.3,30.30,West,266,0.0,1.0,91,0.00,,---,0.00,VWS V14.01,2013-03-07 12:21:00,
2013-03-07 06:26:00,30.6,28.3,30.30,West,267,0.0,1.0,91,0.00,,---,0.00,VWS V14.01,2013-03-07 12:26:00,
2013-03-07 06:30:00,33.1,29.9,30.33,NNE,16,0.0,6.0,88,0.00,,---,0.00,VWS V14.01,2013-03-07 12:30:00,
2013-03-07 06:31:00,30.7,28.4,30.30,West,274,1.0,1.0,91,0.00,,---,0.00,VWS V14.01,2013-03-07 12:31:00,
2013-03-07 06:36:00,30.8,28.5,30.31,West,274,0.0,1.0,91,0.00,,---,0.00,VWS V14.01,2013-03-07 12:36:00,
2013-03-07 06:41:00,30.8,28.5,30.31,West,267,0.0,1.0,91,0.00,,---,0.00,VWS V14.01,2013-03-07 12:41:00,
2013-03-07 06:46:00,30.9,28.6,30.31,West,269,0.0,1.0,91,0.00,,---,0.00,VWS V14.01,2013-03-07 12:46:00,
2013-03-07 06:51:00,31.0,28.7,30.31,WSW,250,0.0,2.0,91,0.00,,---,0.00,VWS V14.01,2013-03-07 12:51:00,
2013-03-07 06:56:00,31.2,28.9,30.31,WNW,283,0.0,2.0,91,0.00,,---,0.00,VWS V14.01,2013-03-07 12:56:00,
2013-03-07 07:00:00,33.6,30.1,30.34,NE,51,1.0,6.0,87,0.00,,---,0.00,VWS V14.01,2013-03-07 13:00:00,
2013-03-07 07:01:00,31.5,29.2,30.32,West,277,0.0,1.0,91,0.00,,---,0.00,VWS V14.01,2013-03-07 13:01:00,
2013-03-07 07:06:00,31.8,29.5,30.32,WNW,288,4.0,6.0,91,0.00,,---,0.00,VWS V14.01,2013-03-07 13:06:00,
2013-03-07 07:11:00,32.2,29.6,30.32,WSW,255,3.0,6.0,90,0.00,,---,0.00,VWS V14.01,2013-03-07 13:11:00,
2013-03-07 07:16:00,32.6,29.7,30.32,West,269,2.0,6.0,89,0.00,,---,0.00,VWS V14.01,2013-03-07 13:16:00,
2013-03-07 07:21:00,32.8,29.6,30.32,West,281,4.0,6.0,88,0.00,,---,0.00,VWS V14.01,2013-03-07 13:21:00,
2013-03-07 07:26:00,33.0,29.8,30.32,West,278,1.0,6.0,88,0.00,,---,0.00,VWS V14.01,2013-03-07 13:26:00,
2013-03-07 07:30:00,34.3,30.3,30.34,NNW,339,4.0,8.0,85,0.00,,---,0.00,VWS V14.01,2013-03-07 13:30:00,
2013-03-07 07:31:00,33.2,30.0,30.33,WNW,289,1.0,4.0,88,0.00,,---,0.00,VWS V14.01,2013-03-07 13:31:00,
2013-03-07 07:36:00,33.3,30.1,30.33,West,262,1.0,5.0,88,0.00,,---,0.00,VWS V14.01,2013-03-07 13:36:00,
2013-03-07 07:41:00,33.4,30.0,30.33,West,272,4.0,5.0,87,0.00,,---,0.00,VWS V14.01,2013-03-07 13:41:00,
2013-03-07 07:46:00,33.4,30.0,30.34,NW,307,3.0,6.0,87,0.00,,---,0.00,VWS V14.01,2013-03-07 13:46:00,
2013-03-07 07:51:00,33.5,30.0,30.34,WNW,303,2.0,6.0,87,0.00,,---,0.00,VWS V14.01,2013-03-07 13:51:00,
2013-03-07 07:56:00,33.6,30.1,30.34,WNW,286,2.0,6.0,87,0.00,,---,0.00,VWS V14.01,2013-03-07 13:56:00,
2013-03-07 08:00:00,35.4,31.1,30.35,WNW,290,3.0,10.0,84,0.00,,---,0.00,VWS V14.01,2013-03-07 14:00:00,
2013-03-07 08:01:00,33.6,29.9,30.34,NW,311,2.0,5.0,86,0.00,,---,0.00,VWS V14.01,2013-03-07 14:01:00,
2013-03-07 08:06:00,33.7,30.0,30.34,NW,321,1.0,5.0,86,0.00,,---,0.00,VWS V14.01,2013-03-07 14:06:00,
2013-03-07 08:11:00,33.8,30.1,30.34,WNW,303,4.0,7.0,86,0.00,,---,0.00,VWS V14.01,2013-03-07 14:11:00,
2013-03-07 08:16:00,33.9,30.2,30.34,WNW,290,1.0,8.0,86,0.00,,---,0.00,VWS V14.01,2013-03-07 14:16:00,
2013-03-07 08:21:00,34.0,30.3,30.34,NW,323,1.0,8.0,86,0.00,,---,0.00,VWS V14.01,2013-03-07 14:21:00,
2013-03-07 08:26:00,34.2,30.5,30.34,WNW,297,3.0,8.0,86,0.00,,---,0.00,VWS V14.01,2013-03-07 14:26:00,
2013-03-07 08:30:00,35.7,31.0,30.35,North,349,4.0,11.0,83,0.00,,---,0.00,VWS V14.01,2013-03-07 14:30:00,
2013-03-07 08:31:00,34.3,30.6,30.34,West,277,7.0,8.0,86,0.00,,---,0.00,VWS V14.01,2013-03-07 14:31:00,
2013-03-07 08:36:00,34.4,30.4,30.34,WNW,293,2.0,8.0,85,0.00,,---,0.00,VWS V14.01,2013-03-07 14:36:00,
2013-03-07 08:41:00,34.5,30.5,30.35,WNW,284,4.0,8.0,85,0.00,,---,0.00,VWS V14.01,2013-03-07 14:41:00,
2013-03-07 08:46:00,34.7,30.7,30.35,WNW,303,1.0,8.0,85,0.00,,---,0.00,VWS V14.01,2013-03-07 14:46:00,
2013-03-07 08:51:00,35.0,31.0,30.35,WNW,282,1.0,8.0,85,0.00,,---,0.00,VWS V14.01,2013-03-07 14:51:00,
2013-03-07 08:56:00,35.4,31.1,30.35,West,271,4.0,10.0,84,0.00,,---,0.00,VWS V14.01,2013-03-07 14:56:00,
2013-03-07 09:00:00,36.5,31.2,30.35,WNW,294,1.0,12.0,81,0.00,,---,0.00,VWS V14.01,2013-03-07 15:00:00,
2013-03-07 09:01:00,35.5,31.1,30.35,NNW,328,3.0,6.0,84,0.00,,---,0.00,VWS V14.01,2013-03-07 15:01:00,
2013-03-07 09:06:00,35.4,31.1,30.35,WNW,291,4.0,7.0,84,0.00,,---,0.00,VWS V14.01,2013-03-07 15:06:00,
2013-03-07 09:11:00,35.3,30.7,30.35,NNE,12,3.0,8.0,83,0.00,,---,0.00,VWS V14.01,2013-03-07 15:11:00,
2013-03-07 09:16:00,35.3,31.0,30.35,NW,307,5.0,8.0,84,0.00,,---,0.00,VWS V14.01,2013-03-07 15:16:00,
2013-03-07 09:21:00,35.5,30.9,30.35,WSW,240,3.0,8.0,83,0.00,,---,0.00,VWS V14.01,2013-03-07 15:21:00,
2013-03-07 09:26:00,35.6,31.0,30.35,NW,321,0.0,11.0,83,0.00,,---,0.00,VWS V14.01,2013-03-07 15:26:00,
2013-03-07 09:30:00,36.4,30.8,30.36,NNW,338,1.0,8.0,80,0.00,,---,0.00,VWS V14.01,2013-03-07 15:30:00,
2013-03-07 09:31:00,35.7,31.0,30.35,NW,307,5.0,12.0,83,0.00,,---,0.00,VWS V14.01,2013-03-07 15:31:00,
2013-03-07 09:36:00,35.6,31.0,30.35,WNW,293,1.0,12.0,83,0.00,,---,0.00,VWS V14.01,2013-03-07 15:36:00,
2013-03-07 09:41:00,35.8,31.1,30.35,West,266,5.0,12.0,83,0.00,,---,0.00,VWS V14.01,2013-03-07 15:41:00,
2013-03-07 09:46:00,36.1,31.5,30.35,North,350,2.0,12.0,83,0.00,,---,0.00,VWS V14.01,2013-03-07 15:46:00,
2013-03-07 09:51:00,36.3,31.0,30.35,NW,309,5.0,12.0,81,0.00,,---,0.00,VWS V14.01,2013-03-07 15:51:00,
2013-03-07 09:56:00,36.4,31.1,30.35,NNW,338,1.0,12.0,81,0.00,,---,0.00,VWS V14.01,2013-03-07 15:56:00,
2013-03-07 10:00:00,36.5,30.6,30.36,NW,323,2.0,5.0,79,0.00,,---,0.00,VWS V14.01,2013-03-07 16:00:00,
2013-03-07 10:01:00,36.5,30.9,30.35,NW,323,2.0,5.0,80,0.00,,---,0.00,VWS V14.01,2013-03-07 16:01:00,
2013-03-07 10:06:00,36.4,30.8,30.36,NNW,328,2.0,5.0,80,0.00,,---,0.00,VWS V14.01,2013-03-07 16:06:00,
2013-03-07 10:11:00,36.5,30.9,30.36,WSW,258,3.0,6.0,80,0.00,,---,0.00,VWS V14.01,2013-03-07 16:11:00,
2013-03-07 10:16:00,36.7,30.8,30.36,NNE,20,2.0,8.0,79,0.00,,---,0.00,VWS V14.01,2013-03-07 16:16:00,
2013-03-07 10:21:00,36.7,30.8,30.36,WNW,298,4.0,8.0,79,0.00,,---,0.00,VWS V14.01,2013-03-07 16:21:00,
2013-03-07 10:26:00,36.4,30.5,30.36,NW,311,3.0,8.0,79,0.00,,---,0.00,VWS V14.01,2013-03-07 16:26:00,
2013-03-07 10:30:00,36.6,30.4,30.36,NW,309,0.0,7.0,78,0.00,,---,0.00,VWS V14.01,2013-03-07 16:30:00,
2013-03-07 10:31:00,36.5,30.9,30.36,WNW,303,3.0,4.0,80,0.00,,---,0.00,VWS V14.01,2013-03-07 16:31:00,
2013-03-07 10:36:00,36.5,30.9,30.35,North,360,1.0,5.0,80,0.00,,---,0.00,VWS V14.01,2013-03-07 16:36:00,
2013-03-07 10:41:00,36.5,30.6,30.35,East,91,2.0,5.0,79,0.00,,---,0.00,VWS V14.01,2013-03-07 16:41:00,
2013-03-07 10:46:00,36.5,30.9,30.36,NNW,343,2.0,5.0,80,0.00,,---,0.00,VWS V14.01,2013-03-07 16:46:00,
2013-03-07 10:51:00,36.5,30.9,30.36,West,271,0.0,5.0,80,0.00,,---,0.00,VWS V14.01,2013-03-07 16:51:00,
2013-03-07 10:56:00,36.6,30.7,30.36,West,271,3.0,5.0,79,0.00,,---,0.00,VWS V14.01,2013-03-07 16:56:00,
2013-03-07 11:00:00,37.4,31.2,30.36,West,278,1.0,7.0,78,0.00,,---,0.00,VWS V14.01,2013-03-07 17:00:00,
2013-03-07 11:01:00,36.5,30.6,30.36,NW,321,1.0,4.0,79,0.00,,---,0.00,VWS V14.01,2013-03-07 17:01:00,
2013-03-07 11:06:00,36.5,30.6,30.36,West,271,5.0,6.0,79,0.00,,---,0.00,VWS V14.01,2013-03-07 17:06:00,
2013-03-07 11:11:00,36.3,30.4,30.36,NW,318,1.0,6.0,79,0.00,,---,0.00,VWS V14.01,2013-03-07 17:11:00,
2013-03-07 11:16:00,36.5,30.6,30.36,West,274,1.0,7.0,79,0.00,,---,0.00,VWS V14.01,2013-03-07 17:16:00,
2013-03-07 11:21:00,36.7,30.5,30.36,East,99,1.0,7.0,78,0.00,,---,0.00,VWS V14.01,2013-03-07 17:21:00,
2013-03-07 11:26:00,36.6,30.4,30.36,NNE,16,2.0,7.0,78,0.00,,---,0.00,VWS V14.01,2013-03-07 17:26:00,
2013-03-07 11:30:00,38.0,29.8,30.36,West,266,3.0,8.0,72,0.00,,---,0.00,VWS V14.01,2013-03-07 17:30:00,
2013-03-07 11:31:00,36.8,30.6,30.36,West,267,1.0,4.0,78,0.00,,---,0.00,VWS V14.01,2013-03-07 17:31:00,
2013-03-07 11:36:00,36.7,30.5,30.36,North,352,5.0,6.0,78,0.00,,---,0.00,VWS V14.01,2013-03-07 17:36:00,
2013-03-07 11:41:00,37.0,31.1,30.36,NW,321,2.0,7.0,79,0.00,,---,0.00,VWS V14.01,2013-03-07 17:41:00,
2013-03-07 11:46:00,37.2,30.7,30.36,WNW,285,1.0,7.0,77,0.00,,---,0.00,VWS V14.01,2013-03-07 17:46:00,
2013-03-07 11:51:00,37.2,30.7,30.36,NW,321,2.0,7.0,77,0.00,,---,0.00,VWS V14.01,2013-03-07 17:51:00,
2013-03-07 11:56:00,37.2,31.0,30.36,NW,321,0.0,7.0,78,0.00,,---,0.00,VWS V14.01,2013-03-07 17:56:00,
2013-03-07 12:00:00,37.8,29.2,30.35,NNW,333,1.0,8.0,71,0.00,,---,0.00,VWS V14.01,2013-03-07 18:00:00,
2013-03-07 12:01:00,37.7,30.5,30.36,NW,304,4.0,6.0,75,0.00,,---,0.00,VWS V14.01,2013-03-07 18:01:00,
2013-03-07 12:06:00,37.7,30.2,30.36,ESE,103,3.0,6.0,74,0.00,,---,0.00,VWS V14.01,2013-03-07 18:06:00,
2013-03-07 12:11:00,37.8,29.9,30.36,NW,321,2.0,6.0,73,0.00,,---,0.00,VWS V14.01,2013-03-07 18:11:00,
2013-03-07 12:16:00,38.2,30.0,30.36,WNW,288,6.0,6.0,72,0.00,,---,0.00,VWS V14.01,2013-03-07 18:16:00,
2013-03-07 12:21:00,38.4,30.2,30.36,North,4,2.0,7.0,72,0.00,,---,0.00,VWS V14.01,2013-03-07 18:21:00,
2013-03-07 12:26:00,38.2,30.0,30.36,WNW,284,6.0,8.0,72,0.00,,---,0.00,VWS V14.01,2013-03-07 18:26:00,
2013-03-07 12:30:00,38.4,28.0,30.35,WNW,284,2.0,6.0,66,0.00,,---,0.00,VWS V14.01,2013-03-07 18:30:00,
2013-03-07 12:31:00,38.0,30.1,30.36,NNE,30,0.0,6.0,73,0.00,,---,0.00,VWS V14.01,2013-03-07 18:31:00,
2013-03-07 12:36:00,38.0,30.1,30.36,East,86,2.0,6.0,73,0.00,,---,0.00,VWS V14.01,2013-03-07 18:36:00,
2013-03-07 12:41:00,37.9,30.0,30.36,West,276,0.0,8.0,73,0.00,,---,0.00,VWS V14.01,2013-03-07 18:41:00,
2013-03-07 12:46:00,38.0,29.8,30.35,WSW,250,0.0,8.0,72,0.00,,---,0.00,VWS V14.01,2013-03-07 18:46:00,
2013-03-07 12:51:00,38.3,29.4,30.35,North,6,1.0,8.0,70,0.00,,---,0.00,VWS V14.01,2013-03-07 18:51:00,
2013-03-07 12:56:00,38.0,29.1,30.35,West,276,3.0,8.0,70,0.00,,---,0.00,VWS V14.01,2013-03-07 18:56:00,
2013-03-07 13:00:00,37.7,27.8,30.35,SSE,151,0.0,9.0,67,0.00,,---,0.00,VWS V14.01,2013-03-07 19:00:00,
2013-03-07 13:01:00,37.5,28.6,30.35,NW,308,2.0,4.0,70,0.00,,---,0.00,VWS V14.01,2013-03-07 19:01:00,
2013-03-07 13:06:00,37.4,28.9,30.35,WNW,297,5.0,6.0,71,0.00,,---,0.00,VWS V14.01,2013-03-07 19:06:00,
2013-03-07 13:11:00,37.5,28.6,30.35,NW,311,0.0,6.0,70,0.00,,---,0.00,VWS V14.01,2013-03-07 19:11:00,
2013-03-07 13:16:00,37.9,29.0,30.35,NNW,330,2.0,6.0,70,0.00,,---,0.00,VWS V14.01,2013-03-07 19:16:00,
2013-03-07 13:21:00,38.6,29.7,30.34,East,79,2.0,6.0,70,0.00,,---,0.00,VWS V14.01,2013-03-07 19:21:00,
2013-03-07 13:26:00,38.7,28.3,30.35,West,280,4.0,6.0,66,0.00,,---,0.00,VWS V14.01,2013-03-07 19:26:00,
2013-03-07 13:30:00,37.4,27.1,30.36,East,84,0.0,8.0,66,0.00,,---,0.00,VWS V14.01,2013-03-07 19:30:00,
2013-03-07 13:31:00,38.5,28.1,30.35,West,267,2.0,4.0,66,0.00,,---,0.00,VWS V14.01,2013-03-07 19:31:00,
2013-03-07 13:36:00,39.3,29.3,30.35,West,276,3.0,5.0,67,0.00,,---,0.00,VWS V14.01,2013-03-07 19:36:00,
2013-03-07 13:41:00,39.1,28.3,30.35,North,350,2.0,7.0,65,0.00,,---,0.00,VWS V14.01,2013-03-07 19:41:00,
2013-03-07 13:46:00,38.7,28.3,30.35,West,272,0.0,7.0,66,0.00,,---,0.00,VWS V14.01,2013-03-07 19:46:00,
2013-03-07 13:51:00,38.3,28.3,30.35,NW,326,2.0,7.0,67,0.00,,---,0.00,VWS V14.01,2013-03-07 19:51:00,
2013-03-07 13:56:00,37.9,27.9,30.35,NE,42,9.0,9.0,67,0.00,,---,0.00,VWS V14.01,2013-03-07 19:56:00,
2013-03-07 14:00:00,37.8,27.8,30.37,NNW,340,1.0,6.0,67,0.00,,---,0.00,VWS V14.01,2013-03-07 20:00:00,
2013-03-07 14:01:00,37.6,28.0,30.35,ENE,60,3.0,8.0,68,0.00,,---,0.00,VWS V14.01,2013-03-07 20:01:00,
2013-03-07 14:06:00,37.5,28.3,30.36,North,350,0.0,8.0,69,0.00,,---,0.00,VWS V14.01,2013-03-07 20:06:00,
2013-03-07 14:11:00,37.3,28.1,30.36,NNW,340,2.0,8.0,69,0.00,,---,0.00,VWS V14.01,2013-03-07 20:11:00,
2013-03-07 14:16:00,37.3,28.1,30.36,SSW,195,1.0,8.0,69,0.00,,---,0.00,VWS V14.01,2013-03-07 20:16:00,
2013-03-07 14:21:00,37.4,28.2,30.36,NNW,327,2.0,8.0,69,0.00,,---,0.00,VWS V14.01,2013-03-07 20:21:00,
2013-03-07 14:26:00,37.3,27.0,30.36,NNW,333,1.0,8.0,66,0.00,,---,0.00,VWS V14.01,2013-03-07 20:26:00,
2013-03-07 14:30:00,37.1,27.2,30.37,ENE,61,2.0,6.0,67,0.00,,---,0.00,VWS V14.01,2013-03-07 20:30:00,
2013-03-07 14:31:00,37.5,27.5,30.37,NNE,32,1.0,2.0,67,0.00,,---,0.00,VWS V14.01,2013-03-07 20:31:00,
2013-03-07 14:36:00,37.4,26.7,30.37,South,176,2.0,5.0,65,0.00,,---,0.00,VWS V14.01,2013-03-07 20:36:00,
2013-03-07 14:41:00,37.5,27.2,30.37,NNE,19,3.0,5.0,66,0.00,,---,0.00,VWS V14.01,2013-03-07 20:41:00,
2013-03-07 14:46:00,37.6,27.6,30.37,NNW,343,1.0,5.0,67,0.00,,---,0.00,VWS V14.01,2013-03-07 20:46:00,
2013-03-07 14:51:00,37.7,28.1,30.37,North,352,2.0,5.0,68,0.00,,---,0.00,VWS V14.01,2013-03-07 20:51:00,
2013-03-07 14:56:00,37.7,27.8,30.37,NNW,345,0.0,6.0,67,0.00,,---,0.00,VWS V14.01,2013-03-07 20:56:00,
2013-03-07 15:00:00,36.8,26.9,30.36,NW,321,0.0,7.0,67,0.00,,---,0.00,VWS V14.01,2013-03-07 21:00:00,
2013-03-07 15:01:00,37.7,27.8,30.37,WSW,256,0.0,3.0,67,0.00,,---,0.00,VWS V14.01,2013-03-07 21:01:00,
2013-03-07 15:06:00,37.7,27.8,30.37,ENE,65,0.0,3.0,67,0.00,,---,0.00,VWS V14.01,2013-03-07 21:06:00,
2013-03-07 15:11:00,37.6,27.6,30.37,North,8,0.0,5.0,67,0.00,,---,0.00,VWS V14.01,2013-03-07 21:11:00,
2013-03-07 15:17:00,37.3,27.0,30.37,North,6,5.0,6.0,66,0.00,,---,0.00,VWS V14.01,2013-03-07 21:17:00,
2013-03-07 15:22:00,37.2,26.9,30.36,NNW,344,1.0,6.0,66,0.00,,---,0.00,VWS V14.01,2013-03-07 21:22:00,
2013-03-07 15:27:00,37.1,27.2,30.37,NE,50,0.0,6.0,67,0.00,,---,0.00,VWS V14.01,2013-03-07 21:27:00,
2013-03-07 15:30:00,36.4,26.1,30.37,WNW,288,0.0,3.0,66,0.00,,---,0.00,VWS V14.01,2013-03-07 21:30:00,
2013-03-07 15:32:00,36.9,27.0,30.37,WNW,285,1.0,2.0,67,0.00,,---,0.00,VWS V14.01,2013-03-07 21:32:00,
2013-03-07 15:37:00,36.9,27.0,30.37,NNW,330,0.0,5.0,67,0.00,,---,0.00,VWS V14.01,2013-03-07 21:37:00,
2013-03-07 15:42:00,36.9,26.6,30.37,WNW,297,2.0,7.0,66,0.00,,---,0.00,VWS V14.01,2013-03-07 21:42:00,
2013-03-07 15:47:00,36.8,26.5,30.37,NNW,327,0.0,7.0,66,0.00,,---,0.00,VWS V14.01,2013-03-07 21:47:00,
2013-03-07 15:52:00,36.8,26.5,30.36,North,354,1.0,7.0,66,0.00,,---,0.00,VWS V14.01,2013-03-07 21:52:00,
2013-03-07 15:57:00,36.8,26.9,30.36,NNW,340,1.0,7.0,67,0.00,,---,0.00,VWS V14.01,2013-03-07 21:57:00,
2013-03-07 16:00:00,35.8,25.9,30.37,NW,307,0.0,1.0,67,0.00,,---,0.00,VWS V14.01,2013-03-07 22:00:00,
2013-03-07 16:02:00,36.7,26.8,30.36,North,1,2.0,3.0,67,0.00,,---,0.00,VWS V14.01,2013-03-07 22:02:00,
2013-03-07 16:07:00,36.6,26.7,30.37,WNW,300,0.0,3.0,67,0.00,,---,0.00,VWS V14.01,2013-03-07 22:07:00,
2013-03-07 16:12:00,36.6,26.7,30.37,WNW,290,1.0,3.0,67,0.00,,---,0.00,VWS V14.01,2013-03-07 22:12:00,
2013-03-07 16:17:00,36.5,26.6,30.37,West,260,0.0,3.0,67,0.00,,---,0.00,VWS V14.01,2013-03-07 22:17:00,
2013-03-07 16:22:00,36.6,26.7,30.37,West,260,0.0,3.0,67,0.00,,---,0.00,VWS V14.01,2013-03-07 22:22:00,
2013-03-07 16:27:00,36.4,25.8,30.37,NW,307,0.0,3.0,65,0.00,,---,0.00,VWS V14.01,2013-03-07 22:27:00,
2013-03-07 16:30:00,35.2,26.1,30.38,NW,309,0.0,1.0,69,0.00,,---,0.00,VWS V14.01,2013-03-07 22:30:00,
2013-03-07 16:32:00,36.2,26.0,30.37,West,270,0.0,1.0,66,0.00,,---,0.00,VWS V14.01,2013-03-07 22:32:00,
2013-03-07 16:37:00,36.1,25.9,30.37,West,270,0.0,1.0,66,0.00,,---,0.00,VWS V14.01,2013-03-07 22:37:00,
2013-03-07 16:42:00,36.0,26.1,30.37,NW,307,0.0,1.0,67,0.00,,---,0.00,VWS V14.01,2013-03-07 22:42:00,
2013-03-07 16:47:00,35.9,26.0,30.37,WNW,289,1.0,1.0,67,0.00,,---,0.00,VWS V14.01,2013-03-07 22:47:00,
2013-03-07 16:52:00,35.9,26.0,30.37,WNW,287,0.0,1.0,67,0.00,,---,0.00,VWS V14.01,2013-03-07 22:52:00,
2013-03-07 16:57:00,35.8,25.9,30.37,WNW,287,0.0,1.0,67,0.00,,---,0.00,VWS V14.01,2013-03-07 22:57:00,
2013-03-07 17:00:00,34.6,25.8,30.39,SSE,163,0.0,1.0,70,0.00,,---,0.00,VWS V14.01,2013-03-07 23:00:00,
2013-03-07 17:02:00,35.7,25.8,30.37,NW,311,0.0,1.0,67,0.00,,---,0.00,VWS V14.01,2013-03-07 23:02:00,
2013-03-07 17:07:00,35.7,25.8,30.37,NW,311,0.0,1.0,67,0.00,,---,0.00,VWS V14.01,2013-03-07 23:07:00,
2013-03-07 17:12:00,35.6,25.7,30.38,NW,309,0.0,1.0,67,0.00,,---,0.00,VWS V14.01,2013-03-07 23:12:00,
2013-03-07 17:17:00,35.5,26.0,30.38,NW,309,0.0,1.0,68,0.00,,---,0.00,VWS V14.01,2013-03-07 23:17:00,
2013-03-07 17:22:00,35.4,25.9,30.38,NW,309,0.0,1.0,68,0.00,,---,0.00,VWS V14.01,2013-03-07 23:22:00,
2013-03-07 17:27:00,35.3,26.2,30.38,NW,309,0.0,1.0,69,0.00,,---,0.00,VWS V14.01,2013-03-07 23:27:00,
2013-03-07 17:30:00,34.1,25.7,30.41,WNW,297,0.0,1.0,71,0.00,,---,0.00,VWS V14.01,2013-03-07 23:30:00,
2013-03-07 17:32:00,35.2,26.1,30.39,West,274,0.0,0.0,69,0.00,,---,0.00,VWS V14.01,2013-03-07 23:32:00,
2013-03-07 17:37:00,35.1,26.0,30.39,West,274,0.0,0.0,69,0.00,,---,0.00,VWS V14.01,2013-03-07 23:37:00,
2013-03-07 17:42:00,34.9,26.1,30.39,West,274,0.0,0.0,70,0.00,,---,0.00,VWS V14.01,2013-03-07 23:42:00,
2013-03-07 17:47:00,34.8,26.0,30.39,NNW,333,0.0,1.0,70,0.00,,---,0.00,VWS V14.01,2013-03-07 23:47:00,
2013-03-07 17:52:00,34.8,26.0,30.39,WSW,246,0.0,1.0,70,0.00,,---,0.00,VWS V14.01,2013-03-07 23:52:00,
2013-03-07 17:57:00,34.6,25.8,30.39,SSE,163,0.0,1.0,70,0.00,,---,0.00,VWS V14.01,2013-03-07 23:57:00,
2013-03-07 18:00:00,33.8,25.1,30.41,WNW,285,0.0,5.0,70,0.00,,---,0.00,VWS V14.01,2013-03-08 00:00:00,
2013-03-07 18:02:00,34.5,25.7,30.39,SSE,163,0.0,0.0,70,0.00,,---,0.00,VWS V14.01,2013-03-08 00:02:00,
2013-03-07 18:07:00,34.3,25.9,30.40,SSE,163,0.0,0.0,71,0.00,,---,0.00,VWS V14.01,2013-03-08 00:07:00,
2013-03-07 18:12:00,34.3,25.9,30.40,WNW,297,0.0,1.0,71,0.00,,---,0.00,VWS V14.01,2013-03-08 00:12:00,
2013-03-07 18:17:00,34.2,25.8,30.40,WNW,297,0.0,1.0,71,0.00,,---,0.00,VWS V14.01,2013-03-08 00:17:00,
2013-03-07 18:22:00,34.2,25.8,30.40,WNW,297,0.0,1.0,71,0.00,,---,0.00,VWS V14.01,2013-03-08 00:22:00,
2013-03-07 18:27:00,34.1,25.7,30.41,WNW,297,0.0,1.0,71,0.00,,---,0.00,VWS V14.01,2013-03-08 00:27:00,
2013-03-07 18:30:00,33.2,24.8,30.41,WNW,283,0.0,2.0,71,0.00,,---,0.00,VWS V14.01,2013-03-08 00:30:00,
2013-03-07 18:32:00,34.0,25.9,30.41,WNW,297,0.0,0.0,72,0.00,,---,0.00,VWS V14.01,2013-03-08 00:32:00,
2013-03-07 18:37:00,33.9,25.8,30.41,ENE,58,1.0,2.0,72,0.00,,---,0.00,VWS V14.01,2013-03-08 00:37:00,
2013-03-07 18:42:00,33.9,25.8,30.41,NW,318,0.0,3.0,72,0.00,,---,0.00,VWS V14.01,2013-03-08 00:42:00,
2013-03-07 18:47:00,33.9,25.8,30.41,NNE,19,1.0,4.0,72,0.00,,---,0.00,VWS V14.01,2013-03-08 00:47:00,
2013-03-07 18:52:00,33.9,25.8,30.41,NW,307,0.0,4.0,72,0.00,,---,0.00,VWS V14.01,2013-03-08 00:52:00,
2013-03-07 18:57:00,33.8,25.4,30.41,NNE,27,0.0,5.0,71,0.00,,---,0.00,VWS V14.01,2013-03-08 00:57:00,
2013-03-07 19:00:00,32.7,24.4,30.42,SSW,194,0.0,1.0,71,0.00,,---,0.00,VWS V14.01,2013-03-08 01:00:00,
2013-03-07 19:02:00,33.8,25.1,30.41,WNW,297,0.0,1.0,70,0.00,,---,0.00,VWS V14.01,2013-03-08 01:02:00,
2013-03-07 19:07:00,33.7,25.0,30.41,ENE,65,0.0,2.0,70,0.00,,---,0.00,VWS V14.01,2013-03-08 01:07:00,
2013-03-07 19:12:00,33.7,25.0,30.42,West,281,0.0,2.0,70,0.00,,---,0.00,VWS V14.01,2013-03-08 01:12:00,
2013-03-07 19:17:00,33.5,25.1,30.41,NNW,334,1.0,2.0,71,0.00,,---,0.00,VWS V14.01,2013-03-08 01:17:00,
2013-03-07 19:22:00,33.4,24.7,30.41,NE,39,0.0,2.0,70,0.00,,---,0.00,VWS V14.01,2013-03-08 01:22:00,
2013-03-07 19:27:00,33.3,24.9,30.41,NE,39,0.0,2.0,71,0.00,,---,0.00,VWS V14.01,2013-03-08 01:27:00,
2013-03-07 19:30:00,32.4,24.4,30.42,NNE,25,1.0,3.0,72,0.00,,---,0.00,VWS V14.01,2013-03-08 01:30:00,
2013-03-07 19:32:00,33.2,24.5,30.41,NNW,330,0.0,1.0,70,0.00,,---,0.00,VWS V14.01,2013-03-08 01:32:00,
2013-03-07 19:37:00,33.1,24.4,30.41,ENE,61,0.0,1.0,70,0.00,,---,0.00,VWS V14.01,2013-03-08 01:37:00,
2013-03-07 19:42:00,33.0,24.3,30.42,ENE,71,0.0,1.0,70,0.00,,---,0.00,VWS V14.01,2013-03-08 01:42:00,
2013-03-07 19:47:00,32.9,24.5,30.42,WNW,297,0.0,1.0,71,0.00,,---,0.00,VWS V14.01,2013-03-08 01:47:00,
2013-03-07 19:52:00,32.9,24.5,30.42,WNW,297,0.0,1.0,71,0.00,,---,0.00,VWS V14.01,2013-03-08 01:52:00,
2013-03-07 19:57:00,32.7,24.4,30.42,SSW,194,0.0,1.0,71,0.00,,---,0.00,VWS V14.01,2013-03-08 01:57:00,
2013-03-07 20:00:00,31.8,23.8,30.42,North,360,0.0,2.0,72,0.00,,---,0.00,VWS V14.01,2013-03-08 02:00:00,
2013-03-07 20:02:00,32.6,24.2,30.42,SSW,194,0.0,0.0,71,0.00,,---,0.00,VWS V14.01,2013-03-08 02:02:00,
2013-03-07 20:07:00,32.5,24.5,30.42,SW,217,0.0,0.0,72,0.00,,---,0.00,VWS V14.01,2013-03-08 02:07:00,
2013-03-07 20:12:00,32.4,24.4,30.42,SSE,158,0.0,1.0,72,0.00,,---,0.00,VWS V14.01,2013-03-08 02:12:00,
2013-03-07 20:17:00,32.3,24.6,30.42,WSW,240,0.0,1.0,73,0.00,,---,0.00,VWS V14.01,2013-03-08 02:17:00,
2013-03-07 20:22:00,32.3,24.3,30.42,WNW,289,1.0,3.0,72,0.00,,---,0.00,VWS V14.01,2013-03-08 02:22:00,
2013-03-07 20:27:00,32.4,24.4,30.42,WNW,290,0.0,3.0,72,0.00,,---,0.00,VWS V14.01,2013-03-08 02:27:00,
2013-03-07 20:30:00,31.6,23.0,30.42,NE,50,0.0,2.0,70,0.00,,---,0.00,VWS V14.01,2013-03-08 02:30:00,
2013-03-07 20:32:00,32.4,24.4,30.42,WNW,289,0.0,2.0,72,0.00,,---,0.00,VWS V14.01,2013-03-08 02:32:00,
2013-03-07 20:37:00,32.2,24.2,30.42,WNW,289,0.0,2.0,72,0.00,,---,0.00,VWS V14.01,2013-03-08 02:37:00,
2013-03-07 20:42:00,32.0,24.3,30.42,South,180,0.0,2.0,73,0.00,,---,0.00,VWS V14.01,2013-03-08 02:42:00,
2013-03-07 20:47:00,32.0,24.3,30.42,ESE,103,0.0,2.0,73,0.00,,---,0.00,VWS V14.01,2013-03-08 02:47:00,
2013-03-07 20:52:00,31.9,24.2,30.42,ENE,65,0.0,2.0,73,0.00,,---,0.00,VWS V14.01,2013-03-08 02:52:00,
2013-03-07 20:57:00,31.8,23.8,30.42,NE,40,2.0,2.0,72,0.00,,---,0.00,VWS V14.01,2013-03-08 02:57:00,
2013-03-07 21:00:00,30.8,22.9,30.42,East,80,0.0,1.0,72,0.00,,---,0.00,VWS V14.01,2013-03-08 03:00:00,
2013-03-07 21:02:00,31.8,23.8,30.42,North,8,0.0,1.0,72,0.00,,---,0.00,VWS V14.01,2013-03-08 03:02:00,
2013-03-07 21:07:00,31.7,23.7,30.42,North,8,0.0,1.0,72,0.00,,---,0.00,VWS V14.01,2013-03-08 03:07:00,
2013-03-07 21:12:00,31.6,23.6,30.42,North,8,0.0,1.0,72,0.00,,---,0.00,VWS V14.01,2013-03-08 03:12:00,
2013-03-07 21:17:00,31.5,23.5,30.42,East,84,0.0,1.0,72,0.00,,---,0.00,VWS V14.01,2013-03-08 03:17:00,
2013-03-07 21:22:00,31.4,23.4,30.42,East,93,0.0,2.0,72,0.00,,---,0.00,VWS V14.01,2013-03-08 03:22:00,
2013-03-07 21:27:00,31.6,23.3,30.42,NE,50,0.0,2.0,71,0.00,,---,0.00,VWS V14.01,2013-03-08 03:27:00,
2013-03-07 21:30:00,29.9,22.0,30.42,East,81,0.0,0.0,72,0.00,,---,0.00,VWS V14.01,2013-03-08 03:30:00,
2013-03-07 21:32:00,31.5,22.9,30.42,NE,49,0.0,1.0,70,0.00,,---,0.00,VWS V14.01,2013-03-08 03:32:00,
2013-03-07 21:37:00,31.6,22.6,30.42,East,81,0.0,1.0,69,0.00,,---,0.00,VWS V14.01,2013-03-08 03:37:00,
2013-03-07 21:42:00,31.4,22.8,30.42,East,81,0.0,1.0,70,0.00,,---,0.00,VWS V14.01,2013-03-08 03:42:00,
2013-03-07 21:47:00,31.3,23.0,30.42,East,80,0.0,1.0,71,0.00,,---,0.00,VWS V14.01,2013-03-08 03:47:00,
2013-03-07 21:52:00,31.0,22.7,30.42,East,81,0.0,1.0,71,0.00,,---,0.00,VWS V14.01,2013-03-08 03:52:00,
2013-03-07 21:57:00,30.8,22.9,30.42,East,80,0.0,1.0,72,0.00,,---,0.00,VWS V14.01,2013-03-08 03:57:00,
2013-03-07 22:00:00,27.7,20.8,30.42,East,81,0.0,0.0,75,0.00,,---,0.00,VWS V14.01,2013-03-08 04:00:00,
2013-03-07 22:02:00,30.7,22.4,30.42,East,80,0.0,0.0,71,0.00,,---,0.00,VWS V14.01,2013-03-08 04:02:00,
2013-03-07 22:07:00,30.4,22.1,30.42,East,80,0.0,0.0,71,0.00,,---,0.00,VWS V14.01,2013-03-08 04:07:00,
2013-03-07 22:12:00,30.3,22.0,30.42,East,81,0.0,0.0,71,0.00,,---,0.00,VWS V14.01,2013-03-08 04:12:00,
2013-03-07 22:17:00,30.1,21.9,30.42,East,80,0.0,0.0,71,0.00,,---,0.00,VWS V14.01,2013-03-08 04:17:00,
2013-03-07 22:22:00,30.0,21.8,30.42,East,80,0.0,0.0,71,0.00,,---,0.00,VWS V14.01,2013-03-08 04:22:00,
2013-03-07 22:27:00,30.0,22.1,30.42,East,81,0.0,0.0,72,0.00,,---,0.00,VWS V14.01,2013-03-08 04:27:00,
2013-03-07 22:30:00,26.4,21.1,30.43,East,80,0.0,0.0,80,0.00,,---,0.00,VWS V14.01,2013-03-08 04:30:00,
2013-03-07 22:32:00,29.6,22.0,30.42,East,80,0.0,0.0,73,0.00,,---,0.00,VWS V14.01,2013-03-08 04:32:00,
2013-03-07 22:37:00,29.3,22.7,30.42,East,80,0.0,0.0,76,0.00,,---,0.00,VWS V14.01,2013-03-08 04:37:00,
2013-03-07 22:42:00,29.1,22.2,30.42,East,80,0.0,0.0,75,0.00,,---,0.00,VWS V14.01,2013-03-08 04:42:00,
2013-03-07 22:47:00,28.8,21.2,30.42,East,81,0.0,0.0,73,0.00,,---,0.00,VWS V14.01,2013-03-08 04:47:00,
2013-03-07 22:52:00,28.3,21.1,30.42,East,81,0.0,0.0,74,0.00,,---,0.00,VWS V14.01,2013-03-08 04:52:00,
2013-03-07 22:57:00,27.8,20.9,30.42,East,81,0.0,0.0,75,0.00,,---,0.00,VWS V14.01,2013-03-08 04:57:00,
2013-03-07 23:00:00,27.5,20.6,30.42,East,81,0.0,0.0,75,0.00,,---,0.00,VWS V14.01,2013-03-08 05:00:00,
2013-03-07 23:02:00,27.4,21.1,30.42,East,80,0.0,0.0,77,0.00,,---,0.00,VWS V14.01,2013-03-08 05:02:00,
2013-03-07 23:07:00,27.1,21.2,30.43,East,81,0.0,0.0,78,0.00,,---,0.00,VWS V14.01,2013-03-08 05:07:00,
2013-03-07 23:12:00,27.1,21.8,30.43,East,81,0.0,0.0,80,0.00,,---,0.00,VWS V14.01,2013-03-08 05:12:00,
2013-03-07 23:17:00,27.1,22.1,30.43,East,81,0.0,0.0,81,0.00,,---,0.00,VWS V14.01,2013-03-08 05:17:00,
2013-03-07 23:22:00,26.9,21.9,30.43,East,80,0.0,0.0,81,0.00,,---,0.00,VWS V14.01,2013-03-08 05:22:00,
2013-03-07 23:27:00,26.5,21.2,30.43,East,80,0.0,0.0,80,0.00,,---,0.00,VWS V14.01,2013-03-08 05:27:00,
2013-03-07 23:30:00,23.6,20.3,30.44,East,81,0.0,0.0,87,0.00,,---,0.00,VWS V14.01,2013-03-08 05:30:00,
2013-03-07 23:32:00,25.9,20.9,30.43,East,80,0.0,0.0,81,0.00,,---,0.00,VWS V14.01,2013-03-08 05:32:00,
2013-03-07 23:37:00,25.5,21.1,30.43,East,81,0.0,0.0,83,0.00,,---,0.00,VWS V14.01,2013-03-08 05:37:00,
2013-03-07 23:42:00,25.4,21.0,30.43,East,81,0.0,0.0,83,0.00,,---,0.00,VWS V14.01,2013-03-08 05:42:00,
2013-03-07 23:47:00,25.2,20.8,30.44,East,80,0.0,0.0,83,0.00,,---,0.00,VWS V14.01,2013-03-08 05:47:00,
2013-03-07 23:52:00,24.8,20.1,30.43,East,80,0.0,0.0,82,0.00,,---,0.00,VWS V14.01,2013-03-08 05:52:00,
2013-03-07 23:57:00,24.5,20.4,30.44,East,80,0.0,0.0,84,0.00,,---,0.00,VWS V14.01,2013-03-08 05:57:00,